Home   Weather   Ostrava   Past weeks

Flag for Czech Republic Past Weather in Ostrava, Czech Republic — Yesterday and Last 2 Weeks

Now
40 °F

Overcast.


Feels Like: 36 °F
Forecast: 33 / 45 °F
Wind: 6 mph from Southwest

Location: Ostrava / Mosnov

Current Time: Dec 10, 2016 at 12:35:51 am

Latest Report: Dec 9, 2016 at 11:00 pm


Visibility: 7 mi

Pressure: 30.34 "Hg

Humidity: 93%

Dew Point: 38 °F

Location of OstravaLocation

Past Weather in Ostrava — Graph

°F

Ostrava Temperature Yesterday

Maximum temperature yesterday: 40 °F (at 11:00 pm)
Minimum temperature yesterday: 29 °F (at 7:00 am)
Average temperature yesterday: 35 °F

High & Low Weather Summary for the Past Weeks

 TemperatureHumidityPressure
High47 °F (Nov 26, 2:00 pm)100% (Nov 24, 11:00 pm)30.70 "Hg (Nov 24, 11:00 pm)
Low21 °F (Dec 5, 4:00 am)61% (Nov 30, 1:00 pm)29.65 "Hg (Dec 2, 4:00 am)
Average34 °F86%30.28 "Hg
* Reported Nov 24 11:00 pm — Dec 9 11:00 pm, Ostrava, Weather by CustomWeather, © 2016

Note: Actual official high and low records may vary slightly from our data, if they occured in-between our weather recording intervals... More about our weather records

Advertising

Ostrava Weather History for the Previous 24 Hours

Scroll right to see more
 ConditionsComfort  
Time TempWeatherWind HumidityBarometerVisibility
11:00 pm
Fri, Dec 9
40 °FOvercast.6 mph93%30.34 "Hg7 mi
10:00 pm40 °FOvercast.6 mph92%30.35 "Hg7 mi
9:00 pm38 °FOvercast.6 mph93%30.35 "Hg9 mi
8:00 pm38 °FOvercast.8 mph91%30.33 "Hg9 mi
7:00 pm38 °FOvercast.8 mph89%30.32 "Hg7 mi
6:00 pm38 °FOvercast.7 mph88%30.32 "Hg6 mi
5:00 pm37 °FOvercast.8 mph86%30.32 "Hg6 mi
4:00 pm38 °FFog.9 mph82%30.32 "Hg5 mi
3:00 pm37 °FFog.10 mph81%30.30 "Hg5 mi
2:00 pm38 °FFog.10 mph78%30.30 "Hg5 mi
1:00 pm38 °FFog.9 mph77%30.30 "Hg5 mi
12:00 pm36 °FFog.10 mph79%30.32 "Hg4 mi
11:00 am33 °FFog.10 mph82%30.33 "Hg4 mi
10:00 am31 °FFog.9 mph87%30.34 "Hg3 mi
9:00 am30 °FFog.9 mph88%30.34 "Hg3 mi
8:00 am30 °FFog.9 mph89%30.33 "Hg3 mi
7:00 am29 °FFog.9 mph89%30.33 "Hg3 mi
6:00 am30 °FFog.9 mph89%30.32 "Hg5 mi
5:00 am30 °FFog.8 mph90%30.36 "Hg5 mi
4:00 am31 °FOvercast.10 mph89%30.36 "Hg4 mi
3:00 am31 °FFog.13 mph89%30.37 "Hg4 mi
2:00 am31 °FFog.12 mph88%30.37 "Hg4 mi
1:00 am31 °FFog.14 mph88%30.37 "Hg4 mi
Weather by CustomWeather, © 2016

See weather overviewHow to use our weather pages